Location: Ferintosh
(52.7647°N, 112.9692°W)
Time: 13:36:47
(UTC+00:00)

Transit 2A Rocket - Pass Details

Date: 20 May 2024
Orbit: 583 x 910 km, 66.7° (Epoch: 14 June)

Event Time Altitude Azimuth Distance (km) Brightness Sun altitude
Rises 20:11:22 0° 319° (NW) 3,379 8.2 56.4°
Reaches altitude 10° 20:13:46 10° 317° (NW) 2,483 7.6 56.3°
Maximum altitude 20:19:32 69° 236° (SW) 947 7.2 56.0°
Drops below altitude 10° 20:25:33 10° 154° (SSE) 2,586 8.2 55.6°
Sets 20:28:06 0° 152° (SSE) 3,529 8.7 55.5°
